Volver al catálogo

ESSA 4

TOS-B

ActivoMeteoLEO
NORAD 2657·PAYLOAD·🇺🇸 United States

Lanzado Jan 26, 1967 desde Vandenberg Space Force Base

Loading…

Próximos Pases (próximas 24 horas)

TLE

ActualizadoSource: Space-Track

Época: Sep 14, 2026, 12:28 UTC

1 02657U 67006A   26257.51954962 -.00000056  00000-0 -35487-4 0  9996
2 02657 102.0775 100.3518 0073210 104.3654 283.9160 12.69892441763885

Sigue ESSA 4 en tiempo real con AllMySat

Download on the App Store